Theta_e
313 313 314 313 313 313 314 314 315 315 316 317 317 318 319 320 322 323 324 325 326 326 326 327 327 327 327 326 326 326 326 325 326 325 325 324 324 324 324 323 323 322 322 322 323 322 321 320 321 321 322 320 320 320 319 319 319 318 318 317 316 316 315 312 310 309 313 317 317 317 319 320 318 317 316 318 320 319 311 317 318 318 318 317 316
313 313 313 313 312 312 312 313 314 315 315 315 316 317 318 319 321 322 322 323 325 325 326 326 327 327 326 326 326 325 325 325 325 325 324 324 324 324 323 323 322 322 322 321 322 322 321 320 320 321 321 320 320 319 319 318 318 317 316 316 315 315 316 313 312 310 309 314 314 317 317 319 316 319 316 317 318 319 319 317 317 318 318 318 317
312 311 310 310 310 311 311 312 313 313 313 314 315 315 317 318 319 319 321 322 323 324 325 326 326 326 326 326 326 325 325 325 325 325 324 323 323 323 323 322 322 321 321 320 320 321 320 319 319 320 321 319 319 319 319 318 318 317 316 316 315 315 316 315 313 310 310 311 314 314 315 317 316 317 318 318 318 319 318 318 317 317 317 317 317
310 310 309 309 309 309 309 310 311 311 312 313 314 315 316 316 317 318 319 320 321 323 325 325 325 325 325 325 325 325 325 325 324 324 324 324 323 323 323 322 322 322 322 321 320 320 319 319 319 319 319 318 318 318 318 318 317 316 316 316 315 314 315 315 315 312 311 310 312 313 314 314 315 318 319 318 317 316 316 317 319 318 318 318 317
308 308 307 306 306 306 306 307 308 309 310 311 312 314 314 315 316 316 318 318 320 321 323 325 324 324 324 325 325 324 325 325 324 324 324 324 323 323 323 322 322 322 322 322 314 320 319 319 319 319 319 317 317 317 317 316 316 316 315 316 314 314 314 314 313 313 311 310 311 314 314 314 316 317 318 316 316 316 315 315 316 317 318 319 319
307 305 304 303 304 304 305 306 306 306 307 308 309 311 312 313 313 315 315 316 317 319 321 322 323 323 324 324 325 325 325 325 324 324 324 324 323 323 323 322 322 322 322 322 321 321 320 319 319 319 318 316 316 316 316 316 316 315 314 314 314 313 313 312 312 312 312 311 311 311 312 312 312 314 315 315 314 313 313 313 313 314 314 315 317
305 303 302 302 302 302 303 304 305 305 305 306 307 308 308 308 309 310 312 314 315 316 318 320 321 322 322 323 324 324 324 324 324 324 324 323 323 322 322 321 321 321 322 321 321 321 320 320 319 320 318 317 316 316 315 315 315 314 314 314 314 313 312 312 312 311 311 310 311 311 311 311 311 310 313 314 314 313 312 311 310 311 311 312 312
303 302 302 302 302 303 303 304 303 302 302 303 303 303 304 305 306 307 308 309 311 313 315 317 319 320 321 322 323 324 324 324 324 324 323 323 322 322 321 321 320 320 321 321 321 320 320 320 319 319 318 318 318 317 317 315 315 313 314 314 314 313 312 312 311 311 310 310 310 309 310 309 309 310 300 301 302 304 303 306 309 312 311 311 311
301 301 301 301 302 303 303 301 300 300 299 300 300 301 302 303 303 303 304 305 308 309 312 314 315 317 318 319 320 321 321 321 322 322 322 322 322 321 321 321 320 319 319 319 320 319 318 319 318 319 317 306 304 306 308 308 316 313 313 313 312 312 312 312 311 311 310 309 309 310 309 309 309 308 305 304 304 307 311 310 309 310 312 313 314
300 300 300 301 302 301 300 298 298 297 297 298 299 299 299 299 299 300 301 303 304 305 307 309 311 313 315 316 317 317 318 319 311 304 306 319 321 321 321 320 320 319 317 317 317 317 316 317 317 304 301 300 299 299 300 301 302 311 316 314 312 312 311 311 310 310 310 308 308 308 307 307 308 308 308 308 310 308 306 306 307 309 306 306 307
299 299 300 301 300 299 298 298 297 295 296 296 295 295 296 296 296 297 298 298 298 299 300 302 304 306 308 310 312 313 314 314 303 302 301 301 312 319 319 319 319 318 316 315 315 314 315 315 316 307 301 298 301 297 299 300 300 299 300 303 304 313 312 310 310 310 308 307 309 309 308 308 309 308 308 310 311 311 311 309 307 306 305 303 303
298 298 299 299 298 297 297 296 295 296 296 296 297 296 295 295 296 296 297 298 299 299 298 299 301 303 305 306 306 307 309 301 300 300 300 300 299 310 316 317 317 317 315 314 314 314 314 315 315 315 314 312 313 310 302 297 298 298 298 298 299 300 303 310 309 309 309 308 307 308 308 308 309 310 310 309 310 307 307 307 306 305 303 301 301
297 297 297 297 296 295 294 293 294 295 296 296 295 294 294 295 296 297 297 298 298 298 299 300 301 302 303 303 304 305 306 300 299 299 298 298 299 300 309 313 314 313 313 313 313 313 312 312 312 313 315 300 303 311 313 310 298 296 296 296 296 297 299 299 299 306 312 310 309 308 308 308 308 308 308 308 307 307 306 304 303 302 302 302 303
296 296 295 294 294 293 293 293 293 294 294 294 294 293 294 295 296 296 296 296 297 298 298 298 300 301 302 302 304 305 305 292 293 294 295 295 296 297 305 308 310 310 311 311 312 312 312 311 311 311 312 311 310 310 311 311 311 309 304 301 302 300 296 295 296 295 296 303 307 307 309 308 308 309 307 307 307 305 305 305 304 302 301 303 307
295 294 293 293 293 293 293 293 293 294 294 294 293 293 293 293 294 295 296 296 297 297 297 298 299 299 299 299 300 301 294 291 292 292 293 294 295 295 302 305 306 307 309 309 309 310 311 311 311 311 311 311 310 308 308 309 309 309 309 308 306 305 306 305 304 303 301 302 303 304 306 308 308 308 307 307 307 308 309 307 306 305 303 299 300
293 292 292 293 292 292 291 291 292 293 293 293 293 292 292 292 292 294 293 294 295 295 296 295 295 295 295 297 298 296 292 290 291 291 292 294 294 299 300 301 302 302 303 304 304 302 299 299 301 302 302 301 291 292 295 303 304 304 304 305 305 303 303 301 299 298 300 303 304 304 304 304 300 301 303 305 306 306 301 299 298 297 297 298 298
292 291 291 291 291 291 291 291 291 292 292 292 293 292 290 291 291 291 292 294 293 294 294 292 293 294 294 294 296 294 291 288 289 290 291 292 295 298 297 298 298 299 299 297 296 295 295 295 296 296 296 296 292 293 294 295 299 297 298 296 296 297 298 299 297 296 295 294 294 294 294 295 296 297 297 297 295 299 298 298 297 297 297 297 298
290 290 290 290 290 290 290 290 290 290 291 291 289 289 288 289 290 290 291 293 294 293 293 292 291 290 289 289 289 292 290 287 288 290 291 291 291 297 297 297 296 295 296 295 295 295 292 286 290 295 295 294 292 293 293 296 298 298 297 296 296 297 297 295 298 298 293 294 292 293 293 293 293 294 295 295 295 296 296 296 295 296 296 295 296
290 289 289 289 289 290 290 290 290 290 290 290 288 287 287 287 287 288 289 290 290 290 290 291 290 289 288 288 285 288 289 287 288 289 290 290 292 295 295 296 295 294 294 294 294 293 293 290 288 290 292 292 292 293 292 293 295 295 295 295 295 295 295 293 294 293 295 294 296 296 297 295 297 298 297 293 292 291 299 299 297 295 295 295 294
289 289 289 289 290 289 289 289 289 289 289 289 288 287 286 287 287 287 287 288 288 289 290 290 290 290 290 290 290 290 291 291 289 289 289 290 290 292 294 295 296 293 292 290 291 292 292 292 292 291 292 292 292 292 292 292 293 294 293 293 293 293 292 290 289 292 292 292 293 294 295 296 297 297 297 297 297 294 295 296 297 297 295 294 294
289 289 289 289 289 289 289 289 288 289 289 288 287 287 287 287 287 287 287 288 288 289 289 290 290 290 290 290 290 290 290 291 290 289 290 289 289 290 292 292 292 292 291 290 291 291 292 292 292 290 291 291 291 291 291 291 290 292 292 292 292 291 289 289 288 287 290 288 289 291 292 292 292 295 295 296 296 297 297 296 295 295 294 294 293
289 289 289 289 289 289 289 288 288 289 287 288 288 288 288 288 287 288 289 289 288 288 288 289 289 289 289 289 290 290 288 286 289 288 288 290 290 289 291 291 291 292 291 291 291 291 291 291 291 289 289 289 290 290 290 291 290 291 291 290 290 290 288 288 289 289 289 289 290 290 290 290 292 291 292 293 294 295 296 296 296 295 296 297 295
289 289 289 288 288 288 288 287 287 288 287 288 288 288 289 288 288 289 289 289 288 288 289 288 288 289 288 289 290 290 290 289 285 287 287 288 289 289 289 290 290 292 292 291 291 291 291 290 290 286 288 288 289 289 289 289 289 290 289 290 290 289 288 289 289 289 289 289 289 289 288 289 289 290 290 291 293 293 293 294 293 293 293 293 293
289 288 286 287 287 286 286 287 287 287 287 287 288 287 288 288 289 289 290 289 289 288 289 288 289 288 288 289 289 289 290 289 287 285 286 286 288 288 288 288 288 290 291 291 291 290 290 290 288 287 287 287 288 289 289 288 289 289 289 289 288 287 288 288 288 288 288 288 288 288 288 289 289 289 289 291 290 291 291 291 291 292 292 293 293
286 286 286 286 286 286 286 286 286 287 287 287 287 287 287 288 288 288 288 289 289 288 288 288 288 287 288 287 288 289 289 289 288 287 285 285 287 287 287 287 287 288 288 289 289 290 288 287 287 287 287 287 287 288 288 287 287 287 287 287 286 289 289 288 288 288 288 288 288 288 288 288 290 290 291 291 290 289 289 290 289 290 289 289 289
285 285 285 285 285 286 285 286 286 286 286 287 287 287 287 287 288 287 288 288 288 287 288 287 287 287 287 287 287 287 286 286 286 286 286 286 286 286 286 286 285 285 285 288 285 285 286 287 286 286 286 287 289 289 289 289 286 285 285 285 288 289 289 288 288 288 288 288 288 287 288 289 290 291 290 289 289 290 290 290 290 290 291 291 291
284 285 284 285 285 285 285 286 286 286 286 287 287 286 287 287 286 286 286 286 286 286 286 286 286 286 285 286 286 286 285 285 284 285 285 286 286 286 286 287 286 286 288 289 288 289 289 288 289 287 287 285 286 286 286 287 288 288 289 288 288 289 289 288 288 288 287 287 287 288 288 289 289 288 288 289 288 289 289 288 288 289 289 289 289
284 284 284 285 285 285 284 284 285 285 285 285 286 285 285 285 284 284 284 284 284 284 284 284 284 284 284 284 285 285 284 283 283 283 283 284 284 285 286 286 286 287 287 288 288 288 288 287 287 288 288 288 288 288 288 287 287 287 287 288 288 288 287 287 287 287 287 287 287 287 287 288 287 287 288 288 288 288 288 288 287 287 288 288 287
283 283 284 284 284 284 284 284 284 285 284 284 284 284 284 284 284 283 284 284 284 283 283 283 283 284 283 282 282 282 281 281 282 283 283 283 283 284 285 286 287 287 287 288 287 287 287 287 287 287 287 286 286 286 286 286 286 286 286 286 287 287 287 287 286 286 286 286 286 286 286 286 286 287 287 286 287 287 288 288 288 287 288 288 287
283 282 283 283 283 283 283 283 283 283 284 284 284 283 284 284 284 283 282 283 283 283 283 282 282 283 283 283 282 280 279 281 282 282 283 283 284 285 286 286 286 287 287 288 287 287 286 285 285 285 285 285 284 284 284 284 284 284 285 285 286 285 285 285 285 285 285 285 285 285 285 285 285 286 286 286 286 287 287 287 287 287 286 286 286
282 282 282 281 281 282 282 282 282 282 282 283 283 283 283 283 283 283 282 282 282 282 282 282 282 282 281 280 281 282 281 282 282 282 282 282 283 284 285 285 286 286 287 286 286 285 284 284 283 283 283 284 283 283 283 283 283 283 283 284 284 284 284 284 284 284 284 285 285 285 285 284 284 285 285 285 285 286 286 287 287 287 286 286 285
280 280 280 280 280 280 281 281 281 281 281 281 281 281 281 281 282 282 281 281 281 281 281 281 281 281 281 280 280 280 281 281 281 281 281 281 282 283 284 284 284 285 285 286 284 283 283 282 281 281 282 282 282 282 282 281 282 282 282 282 282 283 283 282 283 284 283 283 283 283 283 284 284 284 284 284 285 285 285 285 285 285 286 286 286
278 277 277 278 278 278 278 279 279 279 279 279 279 280 279 279 279 280 281 281 280 279 279 280 280 279 279 279 280 280 280 280 281 281 280 281 281 282 283 283 283 283 283 282 281 281 281 280 280 280 280 279 280 280 280 280 280 280 281 280 281 282 282 283 284 282 282 282 282 282 283 283 283 283 284 284 284 283 284 284 284 285 285 284 285
275 276 276 277 277 277 277 277 278 278 278 278 279 279 278 279 279 278 278 278 279 278 278 278 278 278 277 278 278 279 280 280 280 280 280 280 281 281 281 281 282 282 281 280 279 279 279 279 279 279 278 279 279 280 279 279 280 280 280 280 281 281 281 282 281 281 281 282 282 282 282 282 283 282 283 283 283 283 283 283 283 283 283 283 283
274 273 273 274 275 275 275 275 276 277 277 277 277 277 277 277 278 277 277 277 277 276 276 276 277 277 275 276 277 278 279 279 279 279 279 279 279 280 280 279 277 277 277 277 278 277 277 277 277 277 276 276 275 276 275 276 276 276 277 277 278 278 279 279 280 280 281 281 281 281 282 282 282 283 282 282 282 282 282 283 283 283 283 283 284
272 272 272 273 274 274 274 274 274 275 275 275 275 275 276 276 276 276 276 276 275 275 275 275 276 276 275 275 276 277 277 278 278 278 277 278 278 278 276 275 274 274 274 274 274 275 275 274 273 273 274 274 274 274 274 275 275 276 276 277 277 277 278 278 279 279 279 279 280 280 281 281 281 282 282 282 282 282 282 282 282 282 282 281 281
271 271 272 272 273 273 272 272 273 273 273 273 274 274 275 275 275 275 275 274 274 275 274 275 275 274 274 274 274 275 276 276 276 276 276 275 275 274 273 272 272 272 271 271 271 272 271 271 272 272 272 272 273 273 273 274 274 275 275 275 275 275 275 276 276 277 276 277 277 278 278 278 279 279 279 279 280 280 280 280 280 280 280 280 280
270 270 271 271 272 271 271 271 271 271 272 272 273 273 274 274 274 274 274 274 274 273 273 273 272 271 270 271 273 274 274 275 275 274 273 272 270 269 269 269 269 269 268 269 269 269 269 269 270 270 270 271 271 271 271 271 271 271 272 272 273 273 275 275 275 275 275 275 275 274 275 275 275 275 276 276 276 277 277 278 278 277 278 279 279
269 269 270 270 270 270 270 270 270 270 271 271 272 273 273 273 273 273 273 273 273 273 272 271 271 270 270 271 271 273 273 272 271 269 269 268 268 267 267 267 267 267 267 267 267 267 267 268 268 269 269 269 268 268 269 269 269 270 270 271 271 272 271 271 271 272 272 271 271 271 272 273 273 274 274 274 274 275 275 276 276 276 276 276 277
268 269 269 269 269 269 269 269 270 270 270 271 271 271 272 271 272 272 272 272 272 271 271 270 269 268 269 269 270 271 270 270 269 268 267 267 266 265 265 265 265 265 265 265 265 266 266 267 267 267 267 267 267 267 267 267 268 268 268 268 268 268 269 269 269 269 268 269 269 270 270 270 270 271 271 272 272 273 272 273 274 274 275 275 275
268 268 268 268 268 269 268 269 269 269 270 270 270 271 270 271 271 271 271 271 271 270 269 268 268 268 268 269 270 270 268 268 267 267 266 266 265 264 264 264 264 264 264 264 264 265 265 265 266 265 266 266 266 266 266 266 266 266 266 266 267 267 267 268 268 267 268 268 268 268 268 268 269 269 268 269 271 271 271 272 272 273 274 274 274
266 267 266 267 267 268 268 268 268 268 269 269 269 270 270 270 270 271 271 271 270 269 268 267 267 267 267 268 268 268 267 267 266 266 265 265 264 263 263 263 263 263 263 263 263 263 264 264 265 265 264 264 265 265 265 265 265 265 265 266 266 266 266 267 267 267 267 267 267 267 268 268 268 268 268 269 269 269 269 270 270 271 271 272 272
265 266 266 266 267 267 267 267 268 268 268 268 269 269 269 269 269 269 269 268 268 268 267 266 266 266 266 266 266 266 266 265 265 264 264 263 263 263 262 262 263 263 263 263 263 263 263 264 264 264 264 264 264 264 265 265 265 265 265 265 266 266 266 266 267 267 267 267 267 267 267 267 268 268 268 268 269 269 269 269 269 270 270 270 271
264 265 265 266 266 266 267 267 267 267 268 268 268 268 268 268 268 268 267 267 266 266 266 265 265 265 264 265 265 264 264 264 264 263 263 262 262 262 262 262 262 262 262 262 263 263 263 263 263 263 263 264 264 264 265 266 266 265 266 265 265 266 266 266 266 266 266 266 266 266 266 267 267 267 267 268 268 268 268 268 269 269 270 270 270
264 264 265 265 265 266 266 266 267 267 266 267 267 267 267 267 266 266 266 265 265 265 264 264 264 264 263 263 264 263 263 263 263 262 262 261 261 261 261 261 261 261 261 262 262 262 262 262 262 262 262 263 264 264 265 266 266 266 266 266 265 265 266 266 266 266 266 265 265 265 266 266 266 266 267 267 267 267 267 268 268 269 269 269 270
264 264 265 265 265 265 265 265 265 266 266 266 265 265 265 265 265 265 264 264 263 263 263 263 263 263 263 263 263 263 262 262 262 262 261 261 261 261 261 261 261 261 261 261 261 261 261 261 262 261 261 262 263 264 265 265 266 266 266 267 266 266 267 267 267 266 266 265 265 265 265 265 265 266 266 267 267 267 267 268 268 269 269 269 270
263 264 264 264 264 264 264 265 265 265 265 265 265 264 264 264 263 263 263 263 262 262 262 262 262 262 262 262 262 261 262 261 261 261 260 260 260 260 260 260 260 260 261 261 261 261 261 261 261 261 261 262 262 263 264 265 266 266 266 267 267 267 267 267 266 266 266 266 265 265 264 264 264 265 266 266 266 266 267 267 268 268 269 269 270
263 263 263 263 263 263 264 264 263 263 263 263 263 263 263 263 262 262 261 261 261 261 260 260 261 261 261 261 261 261 261 261 261 261 260 260 260 259 259 259 259 259 260 260 260 260 260 260 260 260 261 261 262 262 263 264 265 266 266 266 267 267 266 266 266 266 266 266 265 265 264 264 264 264 265 265 265 266 266 267 268 269 269 270 270
263 263 262 262 262 262 262 262 262 262 262 262 262 261 261 261 261 261 260 260 260 260 260 260 260 260 260 260 260 260 260 260 260 260 260 259 259 259 258 258 258 258 259 259 259 259 259 260 259 260 260 261 262 262 263 264 264 265 265 266 267 267 266 266 266 266 266 265 265 265 265 264 264 264 264 265 266 266 267 268 268 269 269 270 270
261 261 261 261 261 261 261 260 261 261 260 261 261 260 260 260 260 260 260 259 259 259 259 259 258 259 259 259 259 259 259 259 259 259 259 258 258 258 258 257 257 258 258 258 259 259 259 259 259 259 260 260 261 262 263 263 264 264 265 266 267 266 266 266 266 265 265 265 265 265 265 264 264 264 265 265 265 266 266 267 268 268 268 268 269
260 260 260 260 259 260 259 259 259 259 259 259 259 259 259 259 259 259 259 258 258 258 258 258 257 258 258 258 258 258 258 258 258 258 258 258 257 257 257 257 256 257 257 258 258 258 258 258 259 259 259 260 260 261 262 263 264 264 265 266 266 266 266 266 265 265 265 265 265 265 264 263 263 263 263 264 265 265 266 267 267 267 268 268 269
Wind_Speed
4 5 4 5 6 8 8 7 9 9 10 11 12 14 14 14 14 13 12 13 12 12 13 13 14 14 14 12 13 13 13 13 12 12 13 14 13 15 17 18 19 18 17 18 17 15 17 17 18 18 17 16 15 15 14 14 10 14 15 14 14 13 13 13 13 15 8 7 12 15 13 9 7 6 8 7 7 8 10 7 8 8 7 7 7
4 5 4 5 6 7 7 7 8 8 9 10 12 12 12 13 13 12 14 14 12 14 14 12 13 14 13 14 13 14 14 14 13 12 13 14 14 11 13 18 19 19 17 18 17 13 15 17 18 18 15 17 17 17 15 13 10 14 16 11 13 11 10 11 13 12 15 7 8 7 10 9 11 7 9 9 12 10 10 11 7 9 9 8 6
4 4 5 6 7 7 7 7 7 8 9 10 11 12 11 12 11 12 13 13 12 13 13 13 14 13 14 14 14 14 15 14 13 13 14 14 14 15 16 15 19 18 18 19 17 17 17 17 18 16 11 16 17 17 16 15 13 14 13 10 12 12 11 12 11 13 14 12 9 10 8 7 10 9 10 11 11 10 12 11 10 8 6 7 7
4 4 5 7 8 7 7 7 8 8 9 9 10 11 10 10 10 12 13 12 13 12 12 13 13 13 14 14 14 14 14 13 13 13 14 14 14 15 15 16 18 18 18 17 17 16 17 17 18 14 14 16 17 15 14 14 12 11 12 11 11 13 12 12 13 12 12 13 10 10 8 9 11 11 8 9 10 10 9 10 8 9 9 9 9
4 5 6 8 7 7 8 7 7 8 9 8 10 10 9 9 9 11 11 12 12 12 12 11 13 13 13 14 13 14 14 13 14 14 13 13 14 14 14 16 18 19 18 17 15 16 16 17 17 14 12 13 13 12 11 13 12 11 12 11 11 11 10 11 12 12 13 14 12 8 8 9 10 9 7 8 9 10 9 9 10 11 12 10 6
5 5 5 6 7 7 8 7 7 8 9 9 10 9 8 8 9 9 10 12 12 12 12 11 10 13 13 13 13 13 13 13 14 13 13 13 13 14 14 16 18 18 18 17 17 16 17 17 16 15 13 13 13 12 12 13 12 13 14 12 10 9 11 11 11 12 13 14 12 11 8 10 9 9 9 8 9 10 8 8 8 9 9 11 12
4 5 6 6 7 8 8 7 6 8 7 8 8 8 8 8 8 9 9 10 11 11 11 12 11 11 13 13 13 13 13 12 12 12 13 13 13 15 16 17 17 17 17 17 16 16 17 15 14 13 13 12 13 12 12 12 12 14 13 13 12 12 12 11 11 12 12 13 12 12 11 8 9 10 7 9 10 10 10 9 10 7 8 10 10
5 5 5 6 7 8 6 6 6 7 7 7 7 8 8 7 8 8 8 9 10 10 11 11 10 9 11 11 12 12 13 12 12 12 13 13 13 16 16 15 16 17 17 17 15 13 12 10 12 13 13 13 13 12 12 12 11 12 12 11 11 12 12 11 12 12 12 12 11 10 9 9 7 7 1 2 4 6 5 9 13 10 9 8 9
5 6 6 6 7 6 5 5 5 6 6 7 7 7 7 7 7 6 6 7 7 8 9 9 9 10 9 9 10 11 12 14 13 13 14 15 15 16 16 15 15 16 15 16 14 13 12 11 12 12 13 15 16 15 14 13 11 11 11 10 11 12 11 11 10 10 10 11 11 9 9 9 8 6 6 7 9 12 11 10 11 9 8 9 9
5 6 6 7 6 5 5 4 4 5 6 6 6 6 6 6 6 6 6 6 7 7 7 8 9 9 10 11 11 10 10 10 8 11 10 11 14 13 13 14 13 13 12 12 11 11 12 11 11 15 16 17 17 17 17 18 19 16 12 9 11 12 11 11 10 9 9 10 11 9 10 11 9 9 9 9 10 7 7 7 10 8 5 10 8
5 5 7 6 5 5 5 5 3 5 6 7 7 7 8 7 7 7 8 8 8 7 7 7 8 8 8 8 8 8 9 8 6 7 10 12 11 11 13 14 12 10 10 11 11 10 10 11 11 12 14 15 15 17 18 20 20 20 21 19 14 12 11 12 11 10 9 10 10 10 10 12 10 6 9 10 9 11 11 8 9 8 9 9 11
6 6 6 5 5 5 4 4 4 5 4 5 6 7 7 7 6 6 6 7 7 6 6 7 7 7 6 7 8 7 7 6 8 8 10 11 12 11 10 11 9 9 9 10 10 9 10 10 10 10 10 11 12 13 15 18 20 21 21 19 19 19 17 13 10 10 9 10 11 11 11 11 10 7 7 7 9 8 8 8 9 9 9 9 8
5 5 5 4 5 4 4 4 5 5 4 4 5 6 7 7 7 6 6 5 5 5 6 6 6 6 7 8 8 8 7 8 11 11 11 11 12 11 8 9 9 8 7 8 8 8 8 8 9 9 9 14 12 12 11 11 15 19 20 20 20 19 18 19 16 12 8 10 11 11 10 8 10 8 6 7 6 9 7 8 8 7 9 9 9
4 4 3 4 4 4 4 4 4 4 4 4 5 6 6 7 7 6 5 4 4 5 5 6 6 6 6 6 6 6 3 8 7 7 7 8 9 8 7 8 9 8 7 7 6 7 8 8 8 9 9 9 9 10 10 11 10 10 11 11 11 14 15 17 18 18 14 11 11 12 7 4 9 7 5 5 6 8 7 9 7 8 10 12 12
4 3 3 3 3 3 3 4 5 5 4 4 6 6 6 6 6 5 4 4 4 4 4 4 4 5 5 4 4 3 3 7 7 7 7 5 5 5 5 7 7 7 7 7 7 8 8 8 8 9 7 8 6 6 7 8 8 8 8 8 7 8 8 8 8 9 10 10 11 12 11 8 8 6 3 2 4 5 4 5 3 3 5 4 5
3 2 3 2 3 3 3 4 4 4 4 3 4 6 5 5 6 5 3 4 3 3 2 1 1 2 2 3 2 1 2 8 7 7 6 6 5 1 2 3 4 4 4 4 4 3 3 3 3 3 3 1 6 6 3 1 4 6 6 6 4 2 1 1 3 3 2 2 3 3 3 3 5 5 5 5 5 4 4 4 3 3 4 6 7
1 1 2 2 3 3 3 3 4 4 3 3 3 5 5 5 4 4 4 4 3 2 0 0 1 1 2 3 2 1 2 7 8 7 7 7 3 2 1 0 1 2 1 2 3 4 5 4 4 4 4 5 6 6 5 4 1 1 1 0 0 1 1 1 2 1 2 2 2 2 3 5 6 6 6 6 4 3 1 3 4 3 5 8 8
0 1 2 2 3 3 3 3 4 4 3 3 4 4 4 4 4 5 4 5 3 3 3 2 3 4 4 4 4 2 2 5 7 6 6 6 4 0 0 1 1 2 2 2 3 4 5 8 7 4 4 4 6 8 8 4 2 2 1 1 2 2 2 2 2 0 3 2 3 2 2 3 5 6 6 6 6 4 3 6 4 2 6 5 8
1 1 2 2 2 2 2 3 3 3 3 3 4 4 4 3 3 4 4 4 4 4 4 3 3 4 4 4 5 3 3 4 6 6 6 6 3 1 1 2 2 1 1 0 2 2 3 5 7 5 4 3 5 6 6 4 2 1 1 1 2 2 1 4 4 5 5 5 4 4 4 2 2 3 4 6 6 5 5 6 2 3 5 5 5
1 1 1 1 1 2 1 2 2 3 3 3 3 3 2 2 3 3 3 3 4 4 4 3 4 4 4 5 5 6 5 6 7 7 6 6 6 2 2 2 2 2 1 1 0 1 3 3 4 6 5 4 5 5 5 5 2 1 1 2 3 3 3 3 2 3 4 4 6 6 6 7 6 5 4 4 4 5 5 5 4 5 5 4 4
0 1 1 2 2 3 3 3 3 3 2 2 1 2 2 2 2 2 2 2 2 2 4 4 4 5 5 5 6 8 7 7 9 11 8 8 7 5 2 1 0 1 1 1 1 1 1 1 1 5 6 6 5 4 4 5 5 1 1 0 1 3 3 2 2 3 4 2 3 4 5 4 4 5 6 5 5 5 4 5 5 5 5 5 4
1 2 2 3 3 4 4 4 3 3 2 1 2 2 2 2 1 2 2 3 4 4 3 3 3 4 4 6 6 6 7 10 8 11 13 12 11 11 5 3 2 1 2 2 2 2 1 1 1 4 6 6 5 3 3 2 3 1 1 1 3 2 1 2 2 2 3 3 3 3 3 3 3 3 4 5 6 6 6 6 5 6 6 7 6
3 3 4 4 4 4 4 3 3 3 3 3 2 3 3 3 3 3 3 4 4 4 4 3 3 3 3 4 6 6 7 6 11 10 13 15 15 13 12 8 8 5 2 1 1 1 1 0 1 3 5 5 5 5 4 4 2 2 3 3 3 4 3 2 2 2 2 2 2 2 2 2 2 2 3 3 4 5 6 6 5 4 5 5 5
3 4 3 3 3 3 3 3 3 3 3 3 3 4 4 3 3 3 3 3 3 4 3 2 3 3 3 3 5 5 6 6 7 11 11 13 14 14 13 12 11 7 5 3 3 1 1 1 0 2 2 3 3 4 4 4 3 4 3 3 4 4 1 1 1 1 1 1 1 1 2 2 2 2 3 5 5 6 6 6 6 6 6 5 5
2 3 3 2 3 3 3 3 4 3 3 4 4 4 4 4 5 4 3 3 3 3 2 2 2 2 2 3 4 5 6 6 7 8 11 10 11 12 13 12 12 10 5 4 5 5 5 6 4 2 1 1 2 1 1 2 3 4 4 4 4 1 0 0 1 1 1 2 2 2 3 3 4 5 5 5 5 4 3 3 3 4 4 4 5
4 4 3 3 3 2 3 4 4 4 4 4 5 4 4 4 5 4 4 4 4 4 3 3 3 3 3 3 4 5 6 6 7 8 9 9 8 9 10 9 8 9 7 6 8 9 10 8 6 4 2 1 2 3 3 2 2 3 3 3 0 0 1 1 2 2 2 2 3 3 3 4 4 5 5 3 3 4 5 5 5 5 4 5 5
4 4 4 3 3 3 3 3 3 4 4 4 4 4 4 4 4 5 4 4 4 4 4 4 4 4 4 4 3 4 5 6 7 7 8 8 7 7 6 6 7 7 5 4 5 3 5 5 4 4 3 3 2 1 1 0 1 1 1 2 2 2 2 2 2 2 2 3 3 3 3 3 3 3 3 3 4 3 3 4 4 4 4 4 5
4 4 4 2 3 3 3 4 3 3 4 4 4 5 5 5 6 7 6 4 3 3 3 4 4 4 4 4 4 3 4 5 6 8 8 7 7 7 6 5 4 4 4 4 4 4 3 4 4 1 0 1 1 2 2 2 2 2 2 2 2 3 3 4 3 1 2 2 3 3 3 3 4 4 4 3 3 3 2 3 4 5 4 5 4
5 5 3 3 3 3 3 3 3 3 4 6 7 7 5 5 6 6 7 6 5 4 4 4 4 3 3 4 4 3 4 4 6 8 8 10 9 7 7 6 5 4 4 6 3 2 1 1 1 1 1 1 1 2 2 2 2 2 3 3 3 4 4 4 5 5 5 5 4 4 4 4 4 3 3 3 3 4 3 4 3 5 5 4 6
5 4 3 3 3 2 2 2 2 2 3 5 6 7 11 11 7 5 5 9 13 12 9 6 4 3 3 3 4 3 3 5 9 11 11 12 12 12 10 10 9 6 5 5 3 0 1 1 2 3 3 3 3 4 5 4 4 4 4 5 4 4 5 5 5 5 5 5 5 5 6 5 5 5 5 5 5 4 3 4 5 4 6 6 6
4 4 3 3 3 2 2 1 2 1 2 3 4 5 5 7 11 11 10 9 10 11 11 11 11 10 5 2 3 4 6 7 9 10 11 12 12 10 9 10 10 10 9 2 1 3 3 3 4 4 4 5 5 6 5 6 6 6 6 5 5 5 5 5 6 6 6 6 6 6 6 6 6 6 6 6 6 6 5 3 3 5 5 6 7
4 3 3 3 3 2 2 1 1 1 1 1 2 3 4 5 5 8 10 10 10 10 10 10 9 9 9 7 5 3 5 7 8 9 10 11 11 9 10 11 11 10 9 5 3 4 4 4 4 4 5 5 6 6 6 6 6 6 6 6 6 6 6 6 7 6 6 6 6 6 6 6 7 7 7 7 7 6 6 6 5 6 6 6 6
6 4 3 3 3 2 1 1 1 1 1 1 1 1 2 3 4 4 5 9 10 9 9 8 8 8 9 9 8 5 5 6 7 8 10 10 9 7 7 11 12 12 8 6 4 4 4 5 5 5 5 5 6 5 5 6 6 6 6 6 6 6 6 6 5 5 6 6 6 6 6 6 7 7 7 7 7 6 6 6 6 6 6 7 7
6 4 3 3 2 2 1 1 1 1 1 1 1 2 2 2 3 3 3 3 4 4 6 7 7 7 9 9 9 8 6 7 8 9 10 10 9 7 5 4 10 13 11 6 6 5 5 4 5 5 5 5 6 6 6 7 7 7 7 6 6 6 6 6 6 6 6 6 5 5 6 6 7 7 7 7 7 7 6 6 6 7 7 7 8
5 6 6 3 3 2 1 1 2 2 2 2 2 2 3 3 4 3 3 3 3 2 1 2 5 9 7 6 9 9 8 8 10 10 11 11 10 6 4 3 5 6 7 7 6 6 5 5 5 6 7 7 7 7 7 7 6 6 6 6 6 6 6 6 6 6 6 5 5 6 6 7 7 7 7 7 7 7 7 7 6 7 7 8 8
4 4 4 4 3 2 1 0 1 2 2 2 2 2 1 2 3 3 3 3 3 2 2 1 1 5 8 8 10 9 8 8 10 11 12 13 12 9 5 5 5 5 5 5 5 5 6 7 7 6 6 6 6 6 6 6 6 5 5 6 6 6 6 7 7 8 8 7 7 7 7 7 7 8 7 7 8 8 7 7 8 8 8 8 8
3 3 4 4 4 3 2 1 1 2 2 2 2 2 1 1 1 1 2 2 3 2 2 1 1 2 3 4 8 8 7 6 8 11 13 13 14 9 6 6 5 5 5 5 6 6 6 6 6 6 6 6 6 6 6 6 6 6 7 7 7 7 7 7 7 7 7 6 7 7 8 7 8 9 9 9 9 8 8 8 8 9 9 10 11
3 3 4 4 4 4 2 2 2 2 2 2 2 2 2 2 2 2 2 2 3 3 3 3 3 2 4 5 7 6 5 4 5 7 10 11 9 7 6 6 6 5 5 5 5 5 5 5 5 5 5 5 6 6 6 6 7 7 7 7 6 6 9 8 9 8 8 7 8 8 8 8 8 8 8 8 8 8 8 9 8 9 9 10 8
3 5 6 7 5 3 3 3 3 3 2 2 2 2 2 3 2 2 2 3 3 3 4 3 3 3 4 5 5 5 5 3 4 5 6 6 6 6 6 5 5 5 4 4 4 4 4 5 5 5 5 5 6 6 6 6 6 6 6 6 6 6 6 6 7 7 7 7 7 7 7 7 7 7 7 8 8 8 9 9 9 9 10 9 9
3 4 4 6 4 4 3 3 3 3 3 3 3 2 2 2 2 2 2 3 3 4 4 4 4 4 4 5 5 4 3 3 4 4 4 4 5 5 5 5 5 4 4 4 4 4 4 4 4 4 5 5 5 5 5 5 5 5 5 5 6 6 6 6 6 6 6 6 6 6 7 7 7 7 7 7 8 8 9 9 9 9 9 9 10
2 3 4 4 4 4 4 4 4 4 4 3 3 3 3 3 2 2 2 3 3 4 4 5 5 4 4 6 8 7 4 3 3 3 4 4 4 5 5 5 5 5 4 4 4 4 4 4 4 4 4 4 4 4 4 4 4 4 4 5 5 5 5 5 5 6 6 6 6 7 7 7 7 8 8 8 9 8 8 8 9 8 9 9 10
2 3 3 3 5 4 4 4 4 4 4 3 4 3 3 2 2 3 3 3 3 4 4 4 4 4 5 9 9 9 5 4 3 3 4 4 4 5 5 5 5 5 5 5 5 5 4 4 4 4 4 4 4 4 4 4 4 4 5 5 5 5 6 6 6 7 8 7 8 8 8 8 8 8 8 8 8 8 8 8 8 9 9 9 9
2 2 3 3 4 4 4 4 4 4 4 4 4 3 3 3 3 3 3 4 4 4 3 3 3 3 4 7 7 8 5 4 4 4 4 4 4 4 4 4 4 4 4 4 4 5 4 4 4 4 4 4 5 4 4 4 4 4 4 5 5 6 7 7 8 8 8 8 8 9 9 9 9 8 8 8 8 8 8 9 8 8 8 8 8
3 3 3 4 3 3 3 4 4 4 4 4 4 4 4 4 4 4 4 4 4 4 3 2 2 3 3 4 5 5 5 4 4 3 4 4 4 4 4 4 4 4 4 4 5 5 5 4 5 5 5 4 5 5 5 5 5 5 5 6 6 7 7 8 8 9 9 9 9 9 9 9 9 9 9 9 8 9 9 9 9 9 9 9 9
4 4 4 4 4 4 4 3 3 3 4 4 4 4 4 4 4 4 4 4 5 4 3 2 2 2 3 3 4 4 4 4 4 4 3 3 4 4 4 4 4 4 4 4 4 5 4 4 4 4 5 4 4 5 4 4 4 4 4 5 5 5 6 6 7 7 7 8 8 8 9 8 8 8 8 8 8 9 9 9 9 10 10 10 9
4 4 4 4 4 4 3 3 3 4 5 5 5 4 4 4 4 5 5 5 5 5 4 3 2 3 3 3 3 3 3 3 3 3 3 3 3 3 4 4 4 3 3 3 3 4 4 4 3 3 4 4 5 5 5 4 4 4 5 4 5 5 5 5 6 7 7 7 8 8 9 9 9 8 10 9 9 8 9 10 9 9 9 10 10
2 3 4 3 4 3 3 4 4 3 3 3 4 4 4 4 4 5 5 5 5 5 4 3 3 2 2 2 2 2 2 2 2 2 2 2 2 2 3 3 3 3 2 2 3 3 3 4 4 4 4 4 5 5 5 5 4 4 4 5 4 5 5 7 7 7 7 7 8 8 9 9 9 9 10 9 9 9 9 9 9 10 10 9 10
3 3 3 2 2 3 4 4 4 3 3 3 3 4 4 4 4 4 4 4 5 4 4 3 3 2 1 1 1 1 1 1 1 1 1 1 2 2 2 2 3 3 3 3 3 3 4 3 4 4 4 4 4 5 5 5 5 5 5 5 5 6 9 11 8 8 7 8 9 9 9 9 9 9 9 10 10 9 10 10 9 9 10 10 10
1 2 2 2 2 2 2 3 2 2 3 3 4 4 4 4 4 4 4 4 4 4 4 3 3 2 1 0 0 0 0 1 1 1 1 1 2 2 2 3 3 3 3 3 4 4 4 4 5 4 4 5 5 5 5 5 6 6 6 6 7 13 13 14 10 8 11 9 8 8 9 8 9 9 10 10 10 9 9 10 10 10 10 10 10
2 3 3 3 3 3 2 2 3 3 2 2 4 4 4 4 4 4 4 4 3 3 3 2 2 1 1 0 1 1 0 0 0 1 1 1 2 2 3 3 4 4 4 4 4 5 5 5 5 5 5 5 5 6 6 6 6 6 6 7 13 14 13 14 12 12 10 8 9 8 8 8 8 9 9 9 9 10 10 9 10 10 10 10 10
4 4 4 4 4 3 3 2 3 3 2 2 2 3 3 4 3 3 3 3 3 2 2 2 1 1 1 1 1 1 2 2 2 1 2 2 3 3 3 4 4 4 4 4 4 4 4 4 4 5 5 6 5 6 6 6 6 6 10 14 13 13 13 13 10 12 14 12 9 8 7 8 8 9 9 8 9 9 10 11 10 10 9 9 10
Wind_Direction
261 262 268 264 262 263 266 267 264 262 263 259 258 258 258 257 255 254 257 250 246 242 240 238 237 234 231 226 223 222 221 218 213 215 219 223 221 225 235 239 239 239 239 240 235 233 235 238 239 237 236 235 238 239 238 236 222 230 233 233 236 230 228 233 247 262 253 234 261 264 266 254 239 203 233 225 229 226 226 232 232 229 224 220 220
254 267 267 271 270 271 272 272 269 266 264 262 258 258 257 256 256 257 252 251 245 245 241 238 237 237 235 232 226 223 222 221 215 215 220 222 221 219 225 236 239 241 239 240 236 233 236 238 240 238 235 236 236 238 236 235 225 230 232 221 230 227 215 233 246 253 264 239 249 251 257 243 262 212 236 228 248 237 231 238 221 232 235 228 224
275 277 283 280 277 276 274 268 267 267 265 263 259 258 258 259 257 256 255 255 250 244 242 238 234 229 232 232 229 226 223 222 220 217 220 221 223 228 230 227 238 238 238 238 236 234 236 237 239 237 231 236 236 237 235 235 231 229 226 219 227 227 224 226 240 250 257 257 236 251 240 242 246 253 235 243 250 249 251 244 237 231 222 232 236
269 277 275 274 277 277 271 268 269 268 266 263 261 261 261 263 263 259 259 259 256 252 246 242 239 236 233 230 227 228 225 222 222 221 221 221 223 223 222 229 236 239 240 239 236 232 233 236 239 233 230 232 235 235 235 236 230 229 235 230 229 230 228 226 228 242 251 260 235 228 239 245 253 250 239 239 247 249 244 251 242 243 235 231 233
258 263 266 275 277 275 276 272 269 269 268 270 268 268 267 267 266 264 266 263 260 259 255 245 241 241 239 236 233 230 227 223 222 222 222 221 223 225 225 232 239 240 240 239 234 232 233 235 238 234 226 229 234 231 231 229 231 234 235 233 229 232 230 229 232 235 246 251 256 230 233 239 248 253 239 249 249 249 250 250 250 252 253 249 225
251 262 267 272 276 273 271 271 269 272 274 276 276 275 273 269 269 269 264 263 261 257 253 250 240 242 245 243 239 237 232 228 227 226 224 223 224 227 228 236 240 241 241 239 237 234 235 236 237 235 225 227 233 231 230 231 231 232 235 234 232 231 233 232 233 236 241 249 252 257 228 237 242 242 239 235 252 258 250 239 248 252 256 256 252
252 251 253 253 265 265 268 269 274 277 277 278 282 282 277 275 272 270 269 266 266 261 255 250 246 242 244 244 241 238 237 232 230 228 226 227 229 238 239 239 240 242 242 239 237 236 236 235 234 230 227 229 232 231 229 232 231 233 233 233 230 232 232 234 230 235 239 247 250 245 251 236 232 246 223 221 237 247 261 271 259 222 220 231 237
254 252 253 258 254 259 262 276 282 281 282 283 281 280 281 278 274 276 276 273 269 265 263 259 254 245 246 245 246 246 245 243 238 236 237 237 240 242 241 238 238 240 242 241 237 233 231 224 227 231 232 233 232 232 227 232 231 235 234 230 232 231 235 234 232 234 237 242 248 252 240 248 233 236 185 180 236 255 234 238 255 249 236 228 231
262 266 268 263 261 269 286 288 290 290 287 286 283 281 281 282 283 281 278 277 274 272 273 270 264 257 250 245 249 251 250 250 248 245 243 243 242 243 243 241 237 239 239 243 239 235 234 234 235 233 231 233 231 230 228 226 230 237 235 226 230 232 237 237 236 236 237 241 248 246 250 247 237 226 216 211 216 231 232 221 252 261 261 259 248
246 258 260 265 274 287 287 279 283 293 293 288 290 295 296 299 300 299 295 292 292 293 288 279 273 266 262 257 252 247 246 248 248 246 242 242 243 244 244 244 240 236 234 237 238 234 234 235 235 233 232 232 233 233 233 232 231 234 237 223 226 230 233 238 237 235 238 242 243 245 244 246 238 222 227 224 228 243 256 247 249 256 266 265 264
250 248 260 265 274 279 277 274 276 273 275 284 282 285 288 289 291 293 294 293 291 291 291 288 280 273 267 265 258 249 247 251 264 250 243 242 248 250 248 247 240 234 236 235 239 236 236 234 238 233 232 236 237 236 235 235 237 239 241 239 233 225 230 235 237 233 235 239 244 242 244 252 245 219 226 232 225 231 238 234 243 251 248 258 268
255 259 263 274 273 271 269 274 269 264 260 263 274 282 284 281 277 276 282 288 288 285 280 271 275 277 275 265 259 259 257 265 272 261 248 244 239 245 251 252 249 243 236 236 239 238 237 237 236 236 232 232 232 235 236 237 238 239 240 241 242 242 237 233 238 236 232 241 244 239 242 247 254 229 232 229 235 236 233 229 231 234 242 246 253
264 264 268 271 275 272 269 266 269 271 272 279 285 288 285 281 279 278 275 281 291 281 270 267 260 256 255 261 262 260 258 249 249 249 249 246 243 240 250 253 257 256 250 244 242 239 240 241 244 237 238 231 233 238 241 237 233 236 239 242 244 245 248 251 253 253 253 246 245 248 236 242 249 241 217 222 218 235 234 233 237 237 241 249 254
278 280 278 276 281 281 281 281 280 281 288 293 298 294 290 287 288 282 283 283 269 270 274 277 279 270 262 254 258 259 274 358 347 321 297 279 267 256 252 254 255 259 259 257 251 246 240 242 244 244 240 236 235 236 239 241 242 233 230 226 236 245 243 245 248 252 250 252 261 262 254 214 246 247 226 218 219 232 234 240 228 232 238 242 250
275 281 285 282 277 282 291 292 295 300 302 304 304 298 295 297 295 288 281 277 275 267 275 290 288 284 285 277 269 297 44 360 14 12 14 358 321 264 255 255 254 255 254 253 255 251 252 248 247 249 245 240 249 254 244 244 242 245 244 240 229 229 233 234 231 231 238 238 244 258 271 279 282 290 303 277 253 261 273 285 294 288 291 309 310
253 262 276 278 284 287 288 290 289 293 301 305 304 303 306 304 300 308 306 293 274 249 232 188 314 342 325 312 253 122 38 12 1 9 2 1 347 344 276 254 265 275 277 293 307 339 354 342 310 302 313 333 31 37 23 303 252 249 248 254 265 284 267 340 359 4 273 248 247 256 273 287 302 293 293 288 276 273 281 290 292 279 287 279 276
236 276 277 300 307 307 303 297 295 298 306 308 310 317 320 321 320 324 304 296 303 311 123 58 31 16 10 17 39 87 31 7 3 2 5 355 352 31 36 110 244 248 332 13 40 42 37 30 42 49 48 45 14 30 12 28 64 132 202 331 36 53 298 315 14 30 32 346 291 276 257 259 266 275 272 257 239 230 260 275 260 227 260 266 266
331 303 316 332 323 323 323 318 314 316 321 328 323 323 324 321 328 335 325 316 307 331 331 10 29 24 20 21 359 360 6 1 356 1 4 7 351 4 20 115 89 66 61 43 46 53 44 41 41 52 53 51 44 46 26 7 29 360 339 338 316 314 309 359 332 56 129 132 124 87 316 297 296 289 283 275 260 217 182 234 223 175 241 238 263
355 338 341 337 334 343 341 341 336 336 342 344 333 323 329 336 334 332 340 336 341 345 348 355 16 22 23 22 9 14 9 355 351 3 6 5 346 262 228 195 156 142 111 19 47 57 53 61 59 62 70 56 52 46 42 36 45 45 1 334 289 284 14 18 357 335 341 344 332 355 316 264 266 286 287 285 280 265 244 254 260 227 250 254 255
349 340 340 345 14 16 17 12 14 7 360 357 352 339 331 341 8 19 17 19 355 351 357 21 31 32 28 31 32 27 24 22 10 2 9 8 0 329 286 235 219 177 113 53 25 45 50 50 43 28 29 39 45 44 49 51 58 38 13 311 290 279 43 3 351 339 321 332 320 327 310 309 298 285 269 265 258 238 244 244 238 225 245 256 246
64 56 47 41 41 34 30 36 31 39 29 24 35 46 40 34 34 39 46 51 56 49 40 41 49 45 39 34 46 40 25 16 26 11 13 13 7 357 25 25 82 151 139 103 100 93 78 62 67 36 32 34 39 39 49 50 50 47 56 74 332 341 336 308 321 337 313 306 296 296 296 300 304 304 299 297 289 285 266 239 228 229 238 252 255
113 92 72 58 48 39 38 26 30 37 31 45 73 74 74 84 75 77 83 85 79 70 55 52 50 48 42 40 41 41 40 29 15 17 14 17 16 8 360 13 352 140 145 142 131 119 89 62 44 26 11 10 3 348 336 334 3 258 247 323 315 320 314 297 289 295 296 295 297 299 302 302 305 306 306 305 303 301 296 288 263 243 239 240 242
111 93 78 73 58 51 46 32 29 27 17 27 53 68 66 68 69 75 88 90 84 79 66 54 50 44 40 37 35 32 29 33 25 17 12 12 15 15 10 2 343 336 347 31 63 78 96 69 59 21 354 352 342 343 344 352 327 8 343 323 337 354 319 290 299 291 291 297 297 304 319 327 330 328 323 316 315 305 302 296 294 284 259 251 248
109 96 86 76 74 67 58 51 45 45 30 27 41 48 40 47 63 67 72 90 90 85 77 64 58 47 39 35 29 23 16 16 21 19 10 6 8 9 4 358 349 341 338 340 333 305 249 180 65 345 336 339 357 16 24 9 16 13 9 358 335 298 314 343 350 344 330 332 345 345 349 345 336 329 324 319 307 304 298 291 288 281 278 273 254
97 85 72 68 68 68 62 59 55 46 50 48 50 51 43 35 57 40 46 52 63 72 64 57 61 56 48 34 22 13 8 4 360 4 359 359 360 1 357 353 347 337 327 329 321 319 318 308 295 273 271 322 360 12 37 354 334 324 310 305 271 230 230 360 5 9 3 359 349 340 336 338 330 309 301 306 304 296 294 300 285 277 277 271 264
95 85 79 65 44 37 72 67 51 39 51 58 61 61 57 53 58 49 47 45 39 41 34 31 30 31 33 27 20 13 8 1 354 353 351 350 348 349 345 339 337 329 304 303 311 306 302 300 300 295 280 203 137 118 96 64 316 272 261 257 249 35 17 20 14 15 359 345 338 334 329 328 324 322 308 296 315 327 326 316 315 312 310 305 301
110 101 95 93 75 46 50 61 71 50 39 51 54 51 50 59 63 58 49 49 49 44 36 26 23 19 16 11 9 10 9 6 358 351 351 346 341 337 343 339 333 326 318 324 319 305 310 308 326 334 356 352 354 13 70 228 66 55 29 15 15 18 22 22 13 357 352 338 330 329 326 324 318 316 329 331 321 312 311 310 301 299 303 295 290
115 104 91 91 86 73 76 56 61 71 51 46 49 50 52 53 59 55 47 40 43 49 47 43 36 25 13 2 355 4 10 6 360 352 344 343 336 333 329 328 334 330 325 324 326 327 326 332 332 339 36 91 91 87 73 69 61 48 32 28 28 24 5 334 314 348 354 342 325 323 325 329 333 328 323 316 310 305 311 315 315 309 313 308 299
102 96 86 81 74 64 65 55 56 72 79 71 65 56 57 68 75 70 54 49 57 69 70 55 36 33 45 30 19 12 10 358 353 349 338 340 340 335 334 336 334 330 309 303 303 307 298 332 358 1 26 46 56 57 57 58 59 55 46 33 32 30 24 24 18 7 354 340 340 338 335 338 331 330 321 321 321 327 322 314 307 310 312 305 292
102 86 75 75 70 63 66 61 53 64 83 105 101 85 68 63 64 85 77 58 60 60 68 66 50 40 70 69 56 37 3 346 346 349 346 345 342 341 344 349 354 353 344 320 302 311 360 13 18 12 9 18 20 23 22 24 26 26 26 30 29 34 25 24 16 1 347 344 344 346 344 344 338 338 334 327 324 319 320 309 307 310 306 306 303
109 103 92 75 58 70 78 75 60 74 81 103 121 125 124 87 79 82 85 78 67 65 65 63 58 56 55 38 27 32 7 359 358 354 350 347 345 349 9 8 4 1 357 334 42 39 19 32 23 19 14 14 19 16 14 14 13 15 15 16 18 23 21 18 9 356 349 351 352 351 344 341 334 332 329 325 321 318 316 309 303 306 298 298 296
115 110 109 109 92 78 83 72 57 76 83 104 116 139 142 144 122 99 96 86 78 72 68 65 61 56 53 48 34 2 5 6 8 3 356 351 348 2 25 23 19 12 9 26 65 40 30 32 30 19 16 15 20 15 14 12 9 10 9 9 7 12 11 9 358 354 356 356 351 345 343 339 333 330 325 322 321 318 318 318 314 305 300 297 294
108 106 113 102 98 81 78 114 168 157 166 146 139 139 145 147 148 151 128 104 88 72 66 66 65 57 44 36 30 25 16 18 20 18 10 360 357 5 31 36 33 26 32 46 52 48 38 32 28 21 18 17 11 11 12 12 9 5 7 4 359 358 2 354 353 355 356 350 345 344 344 340 334 329 324 322 322 317 318 314 313 313 310 307 306
104 111 116 109 98 81 35 312 278 246 216 202 181 163 159 156 164 157 162 176 147 103 77 57 54 52 39 27 18 14 23 33 36 31 23 11 3 3 8 31 43 42 45 51 44 41 35 32 29 22 12 9 9 9 11 10 8 4 2 1 359 355 354 350 353 349 346 345 344 344 340 337 331 327 325 325 322 321 317 317 317 316 315 314 311
109 103 100 108 121 115 93 356 305 294 278 250 212 193 172 170 166 167 179 170 161 155 136 65 55 51 34 19 10 11 21 34 37 34 30 24 15 7 28 36 34 31 33 33 34 31 27 24 23 23 20 20 16 13 8 6 4 3 357 352 351 350 345 347 346 342 334 335 346 348 341 331 326 324 322 321 321 319 319 318 316 315 314 313 311
116 122 122 114 122 119 119 125 275 278 263 282 290 285 237 187 166 168 159 144 142 140 137 73 62 50 26 14 7 6 18 35 41 42 40 34 27 30 52 44 49 42 40 32 27 24 30 28 24 20 14 14 11 9 2 356 355 352 348 349 347 345 346 348 353 357 358 358 355 348 344 342 339 333 327 321 319 322 327 332 332 335 332 329 326
131 128 129 131 131 134 127 174 243 248 252 257 255 235 236 172 150 147 123 135 142 132 104 79 31 349 21 13 1 356 13 33 43 48 44 38 36 41 47 43 42 41 38 27 20 21 26 23 17 15 11 5 6 1 357 353 354 354 357 358 351 352 353 347 353 354 353 349 350 349 349 344 344 345 340 336 332 332 328 323 322 320 320 316 313
121 130 135 134 132 129 141 178 227 239 242 238 225 204 179 166 171 155 153 144 139 134 119 95 58 22 8 353 351 348 349 0 28 40 34 32 31 33 35 38 38 39 33 25 21 19 19 18 15 11 5 7 5 2 359 358 356 357 355 350 347 345 350 351 359 355 356 357 357 356 349 344 339 336 332 330 326 324 322 319 318 312 309 307 306
130 131 137 137 140 142 156 176 192 208 222 225 232 213 182 178 159 155 152 150 144 132 122 107 82 56 23 1 345 344 346 7 25 30 31 34 35 33 36 37 38 38 34 28 22 23 19 17 9 9 11 11 7 2 360 357 356 354 349 345 348 350 356 355 354 353 357 353 346 345 342 338 334 332 327 320 317 318 318 317 314 313 313 313 309
149 148 152 154 146 157 168 179 188 195 200 198 198 188 176 163 149 141 156 158 152 142 136 112 94 64 33 16 5 358 17 30 29 25 30 33 39 35 34 32 28 25 24 22 22 18 16 10 8 8 11 8 6 358 358 354 352 349 350 355 355 355 356 358 354 354 348 344 343 344 342 338 334 332 328 327 329 326 320 316 315 312 309 307 306
154 159 150 162 164 162 170 180 186 187 184 182 179 169 162 155 148 150 148 149 143 131 113 105 93 73 51 38 35 43 57 48 35 31 30 38 43 40 35 32 23 20 17 16 11 11 9 10 8 7 1 359 359 354 356 353 359 355 359 354 357 353 352 353 350 349 344 342 340 338 336 334 333 331 329 327 324 321 319 318 315 314 311 309 306
158 150 157 159 165 176 172 184 178 173 169 162 168 168 156 148 144 154 154 152 129 117 111 102 93 86 61 58 55 61 73 59 41 32 34 34 37 38 34 29 25 17 11 6 3 359 358 358 356 0 353 353 354 352 355 359 2 360 1 359 356 353 351 350 347 345 342 339 337 334 331 327 323 317 314 314 316 316 315 316 316 314 312 311 313
160 157 160 169 174 178 178 174 170 168 165 158 149 136 134 135 133 118 108 103 107 110 112 116 118 103 77 62 65 72 79 70 54 41 33 29 27 31 31 25 19 12 8 3 2 355 351 353 353 353 352 345 351 349 353 355 0 359 4 1 355 352 350 348 344 344 341 339 333 328 324 319 317 314 312 309 305 303 300 301 300 299 299 300 299
165 167 167 167 169 165 169 168 172 174 165 148 134 133 136 135 128 126 126 119 110 101 101 99 101 100 89 74 73 73 75 72 64 55 40 32 22 20 20 20 10 5 5 4 4 357 350 352 350 348 345 344 349 350 352 0 3 5 1 359 353 350 348 347 345 343 341 333 327 320 317 312 310 307 305 303 302 300 299 297 296 294 295 293 290
166 166 165 163 165 164 167 171 167 160 150 144 140 129 130 128 122 120 122 113 104 98 91 77 59 50 57 63 66 73 73 71 70 63 48 36 25 16 11 7 7 4 4 2 2 352 346 345 343 343 338 342 342 341 345 350 344 345 339 337 333 337 336 340 342 335 325 315 311 310 308 306 303 299 295 296 296 296 291 291 291 293 291 289 291
171 168 165 164 158 161 159 158 159 157 162 158 147 135 132 124 113 108 108 107 107 114 112 98 69 47 41 46 55 67 68 71 68 63 52 41 33 17 13 1 358 350 1 356 352 346 344 338 338 339 334 332 331 333 332 329 329 325 324 321 329 329 336 341 334 325 319 318 314 311 308 305 300 297 297 299 297 295 292 293 292 291 291 293 293
160 162 160 161 159 150 143 148 157 155 151 144 140 134 130 117 107 99 95 99 102 108 116 111 102 75 48 40 47 56 68 65 64 62 62 57 39 23 5 355 338 338 340 348 348 346 340 341 334 329 325 325 325 321 322 323 324 322 323 316 313 336 357 343 333 325 322 322 319 313 309 306 302 301 302 302 300 296 297 295 295 294 295 296 296
158 155 152 144 142 148 148 148 139 139 135 132 128 124 120 116 113 108 102 97 99 104 102 104 110 99 67 40 53 49 65 81 68 65 48 51 37 23 4 340 341 339 334 338 346 352 346 343 334 328 323 321 319 320 321 321 322 322 324 322 330 352 347 343 332 330 329 326 318 312 305 300 298 296 297 298 297 296 296 297 299 298 296 296 295
136 139 134 116 90 93 101 126 124 122 140 136 122 117 116 109 110 102 88 91 102 110 116 120 119 120 110 81 77 142 84 72 95 86 70 39 25 6 2 353 344 341 349 346 347 346 346 343 341 333 330 326 323 320 320 324 323 327 326 316 331 344 341 338 334 332 329 325 317 313 305 299 296 296 297 296 296 296 297 299 301 304 306 306 304
129 123 120 122 124 119 103 71 88 117 117 114 128 124 115 114 107 103 93 98 103 102 106 103 109 108 99 73 360 332 305 317 71 71 61 47 24 15 1 355 353 353 352 349 344 343 342 341 337 338 332 324 321 319 318 321 323 322 313 320 333 337 336 336 335 333 331 324 320 312 308 301 300 300 302 301 302 303 303 302 305 306 305 305 304
125 122 118 117 114 108 98 105 113 111 110 78 89 116 121 120 116 112 107 111 117 117 112 112 103 96 79 29 352 325 323 321 332 347 360 12 11 10 5 0 352 346 334 336 336 336 333 332 334 331 327 320 316 314 315 311 314 309 316 323 329 331 334 337 334 331 330 326 320 319 318 316 311 309 306 306 305 304 303 305 305 305 306 306 306